| time (UTC) | temp F | wind direction | speed knots | gust knots | rain 1hr in | rain 24hr in | rain mn in | humidity % | barometer mb |
| 20260505153324 | 63 | 211 | 1.7 | 8.7 | 0.00 | 0.00 | 0.00 | 58 | 1002.2 |
| 20260505152324 | 63 | 303 | 0.9 | 5.2 | 0.00 | 0.00 | 0.00 | 58 | 1002.3 |
| 20260505151319 | 63 | 330 | 1.7 | 4.3 | 0.00 | 0.00 | 0.00 | 57 | 1002.5 |
| 20260505150318 | 64 | 248 | 0.9 | 3.5 | 0.00 | 0.00 | 0.00 | 57 | 1002.6 |
| 20260505140320 | 64 | 216 | 2.6 | 6.1 | 0.00 | 0.00 | 0.00 | 50 | 1002.5 |
| 20260505124331 | 64 | 112 | 2.6 | 7.8 | 0.00 | 0.00 | 0.00 | 47 | 1002.3 |
| 20260505123324 | 64 | 132 | 1.7 | 10.4 | 0.00 | 0.00 | 0.00 | 47 | 1002.4 |
| 20260505122328 | 63 | 98 | 2.6 | 7.0 | 0.00 | 0.00 | 0.00 | 47 | 1002.3 |
| 20260505121332 | 63 | 115 | 1.7 | 6.1 | 0.00 | 0.00 | 0.00 | 46 | 1002.3 |
| 20260505120332 | 63 | 56 | 2.6 | 5.2 | 0.00 | 0.00 | 0.00 | 46 | 1002.3 |
| 20260505115327 | 63 | 245 | 1.7 | 13.0 | 0.00 | 0.00 | 0.00 | 46 | 1002.2 |
| 20260505114351 | 63 | 93 | 1.7 | 8.7 | 0.00 | 0.00 | 0.00 | 46 | 1002.1 |
| 20260505113334 | 63 | 295 | 1.7 | 5.2 | 0.00 | 0.00 | 0.00 | 45 | 1002.2 |
| 20260505112328 | 63 | 272 | 0.9 | 9.6 | 0.00 | 0.00 | 0.00 | 45 | 1002.1 |
| 20260505111330 | 64 | 136 | 4.3 | 7.8 | 0.00 | 0.00 | 0.00 | 45 | 1002.1 |
| 20260505110359 | 64 | 263 | 0.9 | 8.7 | 0.00 | 0.00 | 0.00 | 45 | 1002.0 |
| 20260505101313 | 65 | 297 | 1.7 | 7.8 | 0.00 | 0.00 | 0.00 | 36 | 1001.5 |
| 20260505100339 | 65 | 103 | 0.9 | 11.3 | 0.00 | 0.00 | 0.00 | 34 | 1001.3 |
| 20260505095354 | 65 | 100 | 3.5 | 8.7 | 0.00 | 0.00 | 0.00 | 34 | 1001.1 |
| 20260505094333 | 65 | 350 | 0.0 | 7.0 | 0.00 | 0.00 | 0.00 | 31 | 1001.3 |
| 20260505093313 | 66 | 343 | 3.5 | 7.8 | 0.00 | 0.00 | 0.00 | 30 | 1001.3 |
| 20260505092336 | 66 | 350 | 2.6 | 10.4 | 0.00 | 0.00 | 0.00 | 31 | 1001.0 |
| 20260505091339 | 66 | 250 | 1.7 | 9.6 | 0.00 | 0.00 | 0.00 | 35 | 1000.9 |
| 20260505090313 | 66 | 152 | 0.9 | 9.6 | 0.00 | 0.00 | 0.00 | 38 | 1000.6 |
| 20260505085329 | 67 | 158 | 1.7 | 7.0 | 0.00 | 0.00 | 0.00 | 36 | 1000.4 |
| 20260505084313 | 67 | 236 | 3.5 | 9.6 | 0.00 | 0.00 | 0.00 | 36 | 1000.4 |
| 20260505083315 | 68 | 223 | 3.5 | 11.3 | 0.00 | 0.00 | 0.00 | 37 | 1000.4 |
| 20260505082338 | 69 | 84 | 4.3 | 12.2 | 0.00 | 0.00 | 0.00 | 37 | 1000.3 |
| 20260505081320 | 69 | 49 | 2.6 | 13.0 | 0.00 | 0.00 | 0.00 | 37 | 1000.2 |
| 20260505080321 | 70 | 112 | 4.3 | 8.7 | 0.00 | 0.00 | 0.00 | 35 | 1000.1 |
| 20260505075316 | 70 | 107 | 2.6 | 7.8 | 0.00 | 0.00 | 0.00 | 34 | 1000.0 |
| 20260505074335 | 71 | 118 | 4.3 | 11.3 | 0.00 | 0.00 | 0.00 | 33 | 999.8 |
| 20260505073336 | 72 | 97 | 2.6 | 7.8 | 0.00 | 0.00 | 0.00 | 29 | 999.8 |
| 20260505072339 | 72 | 86 | 3.5 | 9.6 | 0.00 | 0.00 | 0.00 | 25 | 999.7 |
| 20260505071337 | 73 | 134 | 0.9 | 6.1 | 0.00 | 0.00 | 0.00 | 22 | 999.5 |
| 20260505070337 | 73 | 280 | 1.7 | 7.0 | 0.00 | 0.00 | 0.00 | 21 | 999.4 |
| 20260505065327 | 72 | 68 | 3.5 | 10.4 | 0.00 | 0.00 | 0.00 | 20 | 999.4 |
| 20260505064350 | 73 | 141 | 1.7 | 7.0 | 0.00 | 0.00 | 0.00 | 16 | 999.2 |
| 20260505063349 | 73 | 105 | 1.7 | 8.7 | 0.00 | 0.00 | 0.00 | 14 | 999.2 |
| 20260505062330 | 73 | 187 | 0.9 | 7.0 | 0.00 | 0.00 | 0.00 | 12 | 999.2 |
| 20260505061351 | 74 | 72 | 2.6 | 8.7 | 0.00 | 0.00 | 0.00 | 11 | 999.1 |
| 20260505060352 | 74 | 136 | 1.7 | 8.7 | 0.00 | 0.00 | 0.00 | 12 | 999.0 |
| 20260505055352 | 74 | 194 | 2.6 | 7.8 | 0.00 | 0.00 | 0.00 | 11 | 999.0 |
| 20260505054332 | 74 | 110 | 1.7 | 6.1 | 0.00 | 0.00 | 0.00 | 12 | 998.9 |
| 20260505053334 | 74 | 124 | 2.6 | 7.8 | 0.00 | 0.00 | 0.00 | 12 | 998.9 |
| 20260505052328 | 74 | 326 | 2.6 | 7.8 | 0.00 | 0.00 | 0.00 | 13 | 998.9 |
| 20260505051313 | 74 | 27 | 0.0 | 4.3 | 0.00 | 0.00 | 0.00 | 10 | 999.0 |
| 20260505050314 | 75 | 50 | 0.0 | 4.3 | 0.00 | 0.00 | 0.00 | 9 | 999.2 |
| 20260505041315 | 74 | 100 | 0.9 | 6.1 | 0.00 | 0.00 | 0.00 | 11 | 999.4 |
| 20260505040332 | 73 | 325 | 0.9 | 5.2 | 0.00 | 0.00 | 0.00 | 12 | 999.4 |
| 20260505035329 | 73 | 281 | 0.0 | 3.5 | 0.00 | 0.00 | 0.00 | 12 | 999.4 |
| 20260505034353 | 73 | 162 | 0.9 | 4.3 | 0.00 | 0.00 | 0.00 | 12 | 999.4 |
| 20260505033314 | 73 | 226 | 0.0 | 4.3 | 0.00 | 0.00 | 0.00 | 11 | 999.4 |
| 20260505032338 | 73 | 110 | 0.9 | 2.6 | 0.00 | 0.00 | 0.00 | 12 | 999.5 |
| 20260505031320 | 72 | 255 | 0.9 | 4.3 | 0.00 | 0.00 | 0.00 | 12 | 999.5 |
| 20260505030319 | 71 | 67 | 3.5 | 7.8 | 0.00 | 0.00 | 0.00 | 12 | 999.6 |
| 20260505025333 | 71 | 300 | 1.7 | 5.2 | 0.00 | 0.00 | 0.00 | 13 | 999.5 |
| 20260505024332 | 71 | 150 | 0.9 | 5.2 | 0.00 | 0.00 | 0.00 | 14 | 999.5 |
| 20260505023313 | 70 | 106 | 1.7 | 7.8 | 0.00 | 0.00 | 0.00 | 14 | 999.6 |
| 20260505022314 | 70 | 351 | 2.6 | 7.0 | 0.00 | 0.00 | 0.00 | 13 | 999.6 |
| 20260505021316 | 69 | 329 | 2.6 | 8.7 | 0.00 | 0.00 | 0.00 | 14 | 999.8 |
| 20260505020318 | 70 | 308 | 1.7 | 5.2 | 0.00 | 0.00 | 0.00 | 14 | 999.8 |
| 20260505015331 | 69 | 343 | 1.7 | 6.1 | 0.00 | 0.00 | 0.00 | 15 | 999.8 |
| 20260505014333 | 69 | 345 | 2.6 | 7.0 | 0.00 | 0.00 | 0.00 | 15 | 999.7 |
| 20260505013353 | 69 | 116 | 2.6 | 7.0 | 0.00 | 0.00 | 0.00 | 15 | 999.7 |
| 20260505012316 | 68 | 101 | 1.7 | 9.6 | 0.00 | 0.00 | 0.00 | 16 | 999.5 |
| 20260505011317 | 68 | 278 | 2.6 | 5.2 | 0.00 | 0.00 | 0.00 | 17 | 999.6 |
| 20260505010315 | 68 | 298 | 2.6 | 6.1 | 0.00 | 0.00 | 0.00 | 17 | 999.8 |
| 20260505005332 | 67 | 314 | 1.7 | 7.0 | 0.00 | 0.00 | 0.00 | 18 | 999.6 |
| 20260505004315 | 66 | 266 | 2.6 | 7.8 | 0.00 | 0.00 | 0.00 | 19 | 999.7 |
| 20260505003335 | 66 | 326 | 1.7 | 7.0 | 0.00 | 0.00 | 0.00 | 20 | 999.5 |
| 20260505002317 | 65 | 326 | 3.5 | 9.6 | 0.00 | 0.00 | 0.00 | 21 | 999.3 |
| 20260505001341 | 64 | 133 | 4.3 | 10.4 | 0.00 | 0.00 | 0.00 | 22 | 999.2 |
| 20260505000317 | 64 | 340 | 6.1 | 10.4 | 0.00 | 0.00 | 0.00 | 22 | 999.4 |
| 20260504235333 | 64 | 343 | 6.1 | 11.3 | 0.00 | 0.00 | 0.00 | 22 | 999.2 |
| 20260504234312 | 64 | 298 | 3.5 | 8.7 | 0.00 | 0.00 | 0.00 | 22 | 999.5 |
| 20260504233316 | 63 | 287 | 6.1 | 10.4 | 0.00 | 0.00 | 0.00 | 23 | 999.4 |
| 20260504232319 | 63 | 314 | 3.5 | 10.4 | 0.00 | 0.00 | 0.00 | 24 | 999.4 |
| 20260504231319 | 62 | 312 | 1.7 | 8.7 | 0.00 | 0.00 | 0.00 | 25 | 999.4 |
| 20260504230321 | 62 | 339 | 3.5 | 9.6 | 0.00 | 0.00 | 0.00 | 26 | 999.2 |
| 20260504225314 | 62 | 315 | 0.9 | 7.8 | 0.00 | 0.00 | 0.00 | 27 | 999.2 |
| 20260504224334 | 62 | 293 | 1.7 | 12.2 | 0.00 | 0.00 | 0.00 | 27 | 999.0 |
| 20260504223334 | 61 | 339 | 2.6 | 8.7 | 0.00 | 0.00 | 0.00 | 28 | 998.9 |
| 20260504222334 | 61 | 323 | 2.6 | 10.4 | 0.00 | 0.00 | 0.00 | 29 | 998.8 |
| 20260504221331 | 60 | 319 | 5.2 | 13.0 | 0.00 | 0.00 | 0.00 | 29 | 998.8 |
| 20260504220400 | 60 | 319 | 5.2 | 12.2 | 0.00 | 0.00 | 0.00 | 30 | 998.7 |
| 20260504215335 | 59 | 314 | 4.3 | 9.6 | 0.00 | 0.00 | 0.00 | 32 | 998.6 |
| 20260504214330 | 59 | 359 | 2.6 | 11.3 | 0.00 | 0.00 | 0.00 | 32 | 998.4 |
| 20260504213314 | 59 | 352 | 4.3 | 13.0 | 0.00 | 0.00 | 0.00 | 32 | 998.3 |
| 20260504212315 | 59 | 322 | 3.5 | 8.7 | 0.00 | 0.00 | 0.00 | 32 | 998.2 |
| 20260504211318 | 59 | 5 | 2.6 | 7.8 | 0.00 | 0.00 | 0.00 | 33 | 998.0 |
| 20260504210313 | 58 | 330 | 2.6 | 7.8 | 0.00 | 0.00 | 0.00 | 33 | 997.7 |
| 20260504205334 | 58 | 332 | 5.2 | 11.3 | 0.00 | 0.00 | 0.00 | 33 | 997.4 |
| 20260504203327 | 0 | 0.0 | 0.0 | 0.00 | 0.00 | 0.00 | 997.0 | ||
| 20260504202313 | 67 | 94 | 284.2 | 0.0 | 0.00 | 0.00 | 0.00 | 996.7 | |
| 20260504201318 | 0 | 0.0 | 0.0 | 0.00 | 0.00 | 0.00 | 996.6 | ||
| 20260504200351 | 0 | 0.0 | 0.0 | 0.00 | 0.00 | 0.00 | 996.4 | ||
| 20260504194316 | 0 | 0.0 | 0.0 | 0.00 | 0.00 | 0.00 | 995.8 | ||
| 20260504193322 | 0 | 0.0 | 0.0 | 0.00 | 0.00 | 0.00 | 995.6 | ||
| 20260504192318 | 0 | 0.0 | 0.0 | 0.00 | 0.00 | 0.00 | 995.3 | ||
| 20260504191324 | 0 | 0.0 | 0.0 | 0.00 | 0.00 | 0.00 | 995.0 | ||
| 20260504190329 | 0 | 0.0 | 0.0 | 0.00 | 0.00 | 0.00 | 994.8 | ||
| 20260504185321 | 0 | 0.0 | 0.0 | 0.00 | 0.00 | 0.00 | 994.6 | ||
| 20260504183322 | 0 | 0.0 | 0.0 | 0.00 | 0.00 | 0.00 | 994.3 | ||
| 20260504182326 | 0 | 0.0 | 0.0 | 0.00 | 0.00 | 0.00 | 994.0 | ||
| 20260504181332 | 0 | 0.0 | 0.0 | 0.00 | 0.00 | 0.00 | 993.9 | ||
| 20260504180331 | 0 | 0.0 | 0.0 | 0.00 | 0.00 | 0.00 | 993.8 | ||
| 20260504175328 | 58 | 360 | 3.5 | 8.7 | 0.00 | 0.00 | 0.00 | 36 | 993.7 |
| 20260504174347 | 58 | 287 | 3.5 | 8.7 | 0.00 | 0.00 | 0.00 | 36 | 993.2 |
| 20260504173347 | 58 | 312 | 5.2 | 10.4 | 0.00 | 0.00 | 0.00 | 37 | 992.9 |
| 20260504172323 | 58 | 236 | 4.3 | 14.8 | 0.00 | 0.00 | 0.00 | 37 | 992.6 |
| 20260504171327 | 58 | 313 | 2.6 | 9.6 | 0.00 | 0.00 | 0.00 | 37 | 992.4 |
| 20260504170313 | 58 | 186 | 5.2 | 13.9 | 0.00 | 0.00 | 0.00 | 36 | 992.2 |
| 20260504160325 | 59 | 307 | 4.3 | 16.5 | 0.00 | 0.00 | 0.00 | 35 | 991.0 |